Regional Weather Roundup
Issued by NWS

Home | Current Version | Previous Version | Graphics & Text | Print | Product List | Glossary On
Versions: 1 2 3 4 5 6 7 8 9 10 11 12 13 14 15 16 17 18 19 20 21 22 23 24 25 26 27 28 29 30 31 32 33 34 35 36 37 38 39 40 41 42 43 44 45 46 47 48 49 50
000
ASUS43 KLSX 241959
RWRMO

WEATHER SUMMARY FOR MISSOURI
NATIONAL WEATHER SERVICE SPRINGFIELD MO
300 PM CDT FRI OCT 24 2014

NOTE: "FAIR" INDICATES FEW OR NO CLOUDS BELOW 12,000 FEET WITH NO
       SIGNIFICANT WEATHER AND/OR OBSTRUCTIONS TO VISIBILITY.
       CURRENT SKY AND/OR WEATHER CONDITIONS ARE NOT AVAILABLE FOR
       CHILLICOTHE AND FARMINGTON.

MOZ001>031-035>038-043-044-053-054-242100-
...NORTHERN AND WESTERN MISSOURI...

CITY           SKY/WX    TMP DP  RH WIND       PRES   REMARKS
KANSAS CTY INT CLOUDY    73  63  70 SW14      29.96F
KANSAS C DTWN  CLOUDY    77  63  61 SW9       29.95F
LEE`S SUMMIT   CLOUDY    75  62  64 SW12      29.98F
ST JOSEPH      CLOUDY    75  63  66 SW13      29.93F
KIRKSVILLE     PTSUNNY   70  62  76 S13       29.97F

$$
MOZ066>068-077>081-088>096-101>105-242100-
...SOUTHWEST MISSOURI...

CITY           SKY/WX    TMP DP  RH WIND       PRES   REMARKS
SPRINGFIELD    PTSUNNY   76  60  57 W12       30.05F
JOPLIN         PTSUNNY   74  61  63 SW10      30.05F

$$
MOZ032>034-039>042-045>050-055>058-069>072-242100-
...CENTRAL MISSOURI...

CITY           SKY/WX    TMP DP  RH WIND       PRES   REMARKS
COLUMBIA       PTSUNNY   72  61  68 S12       30.01F
JEFFERSON CITY MOSUNNY   73  59  61 SE10      30.01F
ROLLA          CLOUDY    69  58  67 SW7       30.04F
SEDALIA        PTSUNNY   75  60  59 S13       30.01F
OSAGE BEACH    PTSUNNY   73  57  56 S9        30.03F

$$
MOZ051-052-059>065-242100-
...EAST CENTRAL MISSOURI...

CITY           SKY/WX    TMP DP  RH WIND       PRES   REMARKS
ST LOUIS INTL  PTSUNNY   74  53  48 SW5       30.04F
SPIRIT OF STL  PTSUNNY   73  49  42 SW6       30.03F
ST CHARLES     SUNNY     71  52  50 SW8       30.03F

$$
MOZ072>076-082>087-097>100-106>115-242100-
...SOUTH CENTRAL AND SOUTHEAST MISSOURI...

CITY           SKY/WX    TMP DP  RH WIND       PRES   REMARKS
CAPE GIRARDEAU MOSUNNY   71  54  54 SW5       30.06F
FARMINGTON     SUNNY     73  43  33 SW7       30.08F
POPLAR BLUFF   SUNNY     71  53  52 SW5       30.07F
WEST PLAINS    PTSUNNY   71  57  61 W6        30.09F

$$



USA.gov is the U.S. government's official web portal to all federal, state and local government web resources and services.